| time (UTC) | temp F | wind direction | speed knots | gust knots | rain 1hr in | rain 24hr in | rain mn in | humidity % | barometer mb |
| 20260506202110 | 50 | 212 | 0.9 | 3.5 | 0.07 | 0.39 | 0.39 | 95 | 1011.6 |
| 20260506201110 | 50 | 153 | 0.9 | 2.6 | 0.07 | 0.39 | 0.39 | 95 | 1011.5 |
| 20260506195110 | 50 | 236 | 1.7 | 7.8 | 0.07 | 0.36 | 0.36 | 95 | 1011.4 |
| 20260506194109 | 50 | 217 | 1.7 | 5.2 | 0.06 | 0.35 | 0.35 | 95 | 1011.3 |
| 20260506193109 | 50 | 172 | 0.9 | 9.6 | 0.06 | 0.33 | 0.33 | 95 | 1011.1 |
| 20260506192109 | 50 | 145 | 0.0 | 2.6 | 0.07 | 0.32 | 0.32 | 95 | 1011.0 |
| 20260506191109 | 50 | 221 | 0.9 | 2.6 | 0.08 | 0.31 | 0.31 | 95 | 1010.9 |
| 20260506185109 | 50 | 230 | 1.7 | 5.2 | 0.08 | 0.29 | 0.29 | 94 | 1010.8 |
| 20260506184109 | 51 | 205 | 0.9 | 4.3 | 0.09 | 0.28 | 0.28 | 94 | 1010.7 |
| 20260506183109 | 51 | 130 | 1.7 | 5.2 | 0.09 | 0.27 | 0.27 | 94 | 1010.6 |
| 20260506182109 | 51 | 231 | 1.7 | 5.2 | 0.08 | 0.25 | 0.25 | 94 | 1010.5 |
| 20260506181108 | 51 | 200 | 1.7 | 8.7 | 0.07 | 0.24 | 0.24 | 94 | 1010.4 |
| 20260506180113 | 51 | 210 | 0.9 | 7.8 | 0.07 | 0.22 | 0.22 | 94 | 1010.3 |
| 20260506175114 | 51 | 248 | 0.9 | 4.3 | 0.08 | 0.22 | 0.21 | 94 | 1010.2 |
| 20260506173113 | 51 | 61 | 0.9 | 7.0 | 0.07 | 0.19 | 0.18 | 94 | 1009.9 |
| 20260506172113 | 51 | 211 | 1.7 | 7.8 | 0.08 | 0.18 | 0.17 | 94 | 1009.7 |
| 20260506165113 | 52 | 224 | 0.9 | 3.5 | 0.07 | 0.14 | 0.13 | 93 | 1009.5 |
| 20260506164113 | 52 | 185 | 0.9 | 3.5 | 0.06 | 0.13 | 0.12 | 92 | 1009.5 |
| 20260506163114 | 52 | 192 | 1.7 | 5.2 | 0.06 | 0.12 | 0.11 | 92 | 1009.5 |
| 20260506162113 | 52 | 221 | 1.7 | 8.7 | 0.06 | 0.10 | 0.09 | 91 | 1009.4 |
| 20260506161112 | 52 | 147 | 1.7 | 5.2 | 0.06 | 0.09 | 0.09 | 91 | 1009.4 |
| 20260506160112 | 52 | 120 | 1.7 | 4.3 | 0.06 | 0.09 | 0.08 | 90 | 1009.4 |
| 20260506155112 | 52 | 110 | 0.9 | 5.2 | 0.05 | 0.07 | 0.06 | 90 | 1009.3 |
| 20260506154112 | 52 | 222 | 1.7 | 5.2 | 0.04 | 0.06 | 0.06 | 89 | 1009.3 |
| 20260506153112 | 52 | 193 | 1.7 | 5.2 | 0.03 | 0.06 | 0.05 | 88 | 1009.2 |
| 20260506151112 | 53 | 167 | 1.7 | 7.0 | 0.01 | 0.03 | 0.02 | 84 | 1009.1 |
| 20260506150112 | 53 | 175 | 2.6 | 7.8 | 0.00 | 0.02 | 0.02 | 83 | 1009.0 |
| 20260506145112 | 53 | 121 | 1.7 | 7.0 | 0.00 | 0.02 | 0.02 | 84 | 1009.0 |
| 20260506143112 | 54 | 169 | 1.7 | 9.6 | 0.00 | 0.02 | 0.02 | 85 | 1009.0 |
| 20260506142111 | 54 | 248 | 2.6 | 8.7 | 0.01 | 0.02 | 0.02 | 85 | 1008.9 |
| 20260506141111 | 54 | 155 | 3.5 | 12.2 | 0.01 | 0.02 | 0.02 | 85 | 1008.9 |
| 20260506140111 | 54 | 277 | 2.6 | 7.8 | 0.01 | 0.02 | 0.02 | 86 | 1008.8 |
| 20260506135111 | 55 | 124 | 2.6 | 10.4 | 0.01 | 0.15 | 0.02 | 85 | 1008.8 |
| 20260506134111 | 55 | 232 | 2.6 | 7.8 | 0.01 | 0.15 | 0.02 | 86 | 1008.8 |
| 20260506133111 | 55 | 113 | 2.6 | 8.7 | 0.01 | 0.15 | 0.02 | 86 | 1008.7 |
| 20260506131111 | 55 | 223 | 3.5 | 11.3 | 0.01 | 0.14 | 0.01 | 84 | 1008.7 |
| 20260506130111 | 55 | 48 | 3.5 | 13.9 | 0.01 | 0.14 | 0.01 | 84 | 1008.5 |
| 20260506125111 | 56 | 238 | 4.3 | 13.9 | 0.01 | 0.14 | 0.01 | 85 | 1008.3 |
| 20260506123110 | 57 | 233 | 4.3 | 14.8 | 0.01 | 0.14 | 0.01 | 85 | 1008.0 |
| 20260506122110 | 57 | 230 | 5.2 | 11.3 | 0.00 | 0.13 | 0.00 | 86 | 1007.9 |
| 20260506121110 | 58 | 247 | 3.5 | 9.6 | 0.00 | 0.13 | 0.00 | 86 | 1007.8 |
| 20260506115110 | 58 | 259 | 1.7 | 7.8 | 0.00 | 0.13 | 0.00 | 86 | 1007.7 |
| 20260506114110 | 58 | 122 | 1.7 | 8.7 | 0.00 | 0.13 | 0.00 | 84 | 1007.7 |
| 20260506112110 | 58 | 264 | 2.6 | 8.7 | 0.00 | 0.13 | 0.00 | 83 | 1007.6 |
| 20260506111110 | 58 | 271 | 2.6 | 7.8 | 0.00 | 0.13 | 0.00 | 83 | 1007.5 |
| 20260506110110 | 59 | 293 | 2.6 | 10.4 | 0.00 | 0.13 | 0.00 | 81 | 1007.5 |
| 20260506105109 | 59 | 173 | 3.5 | 10.4 | 0.00 | 0.13 | 0.00 | 79 | 1007.6 |
| 20260506104109 | 59 | 184 | 1.7 | 7.0 | 0.00 | 0.13 | 0.00 | 78 | 1007.4 |
| 20260506103109 | 59 | 207 | 1.7 | 7.8 | 0.00 | 0.13 | 0.00 | 77 | 1007.3 |
| 20260506102109 | 59 | 326 | 1.7 | 8.7 | 0.00 | 0.13 | 0.00 | 77 | 1007.3 |
| 20260506101109 | 59 | 245 | 1.7 | 5.2 | 0.00 | 0.13 | 0.00 | 77 | 1007.3 |
| 20260506100109 | 59 | 252 | 0.9 | 5.2 | 0.00 | 0.13 | 0.00 | 77 | 1007.2 |
| 20260506095109 | 59 | 198 | 2.6 | 7.0 | 0.00 | 0.13 | 0.00 | 77 | 1007.2 |
| 20260506094109 | 59 | 203 | 1.7 | 7.0 | 0.00 | 0.13 | 0.00 | 76 | 1007.1 |
| 20260506093109 | 59 | 186 | 0.9 | 4.3 | 0.00 | 0.13 | 0.00 | 76 | 1007.1 |
| 20260506092109 | 60 | 235 | 0.9 | 3.5 | 0.00 | 0.13 | 0.00 | 75 | 1007.1 |
| 20260506090108 | 60 | 212 | 2.6 | 8.7 | 0.00 | 0.13 | 0.00 | 72 | 1007.0 |
| 20260506085108 | 62 | 219 | 1.7 | 4.3 | 0.00 | 0.13 | 0.00 | 71 | 1007.0 |
| 20260506084108 | 61 | 210 | 1.7 | 3.5 | 0.00 | 0.13 | 0.00 | 73 | 1006.9 |
| 20260506083108 | 61 | 200 | 1.7 | 5.2 | 0.00 | 0.13 | 0.00 | 73 | 1006.7 |
| 20260506082108 | 61 | 261 | 2.6 | 8.7 | 0.00 | 0.13 | 0.00 | 74 | 1006.8 |
| 20260506081108 | 60 | 191 | 1.7 | 7.0 | 0.00 | 0.13 | 0.00 | 76 | 1006.8 |
| 20260506080108 | 59 | 184 | 1.7 | 7.0 | 0.00 | 0.13 | 0.00 | 75 | 1006.9 |
| 20260506072112 | 58 | 243 | 2.6 | 7.8 | 0.00 | 0.13 | 0.00 | 76 | 1006.9 |
| 20260506071112 | 59 | 343 | 0.9 | 9.6 | 0.00 | 0.13 | 0.00 | 76 | 1006.8 |
| 20260506070112 | 59 | 144 | 1.7 | 5.2 | 0.00 | 0.13 | 0.00 | 76 | 1006.8 |
| 20260506062112 | 57 | 145 | 0.9 | 7.0 | 0.00 | 0.13 | 0.00 | 79 | 1007.0 |
| 20260506061112 | 56 | 230 | 0.9 | 3.5 | 0.00 | 0.13 | 0.00 | 82 | 1007.0 |
| 20260506060112 | 56 | 214 | 0.0 | 0.9 | 0.00 | 0.13 | 0.00 | 81 | 1007.0 |
| 20260506050111 | 54 | 277 | 0.0 | 1.7 | 0.00 | 0.13 | 0.00 | 85 | 1007.1 |
| 20260506045111 | 53 | 145 | 0.0 | 2.6 | 0.00 | 0.13 | 0.00 | 85 | 1007.2 |
| 20260506044116 | 53 | 109 | 0.0 | 2.6 | 0.00 | 0.13 | 0.00 | 85 | 1007.3 |
| 20260506042111 | 53 | 148 | 0.9 | 4.3 | 0.00 | 0.13 | 0.00 | 85 | 1007.3 |
| 20260506041111 | 53 | 207 | 0.9 | 5.2 | 0.00 | 0.13 | 0.00 | 85 | 1007.2 |
| 20260506040111 | 53 | 100 | 0.9 | 4.3 | 0.00 | 0.13 | 0.00 | 85 | 1007.3 |
| 20260506035110 | 53 | 169 | 0.9 | 3.5 | 0.00 | 0.13 | 0.00 | 85 | 1007.5 |
| 20260506034110 | 53 | 124 | 0.9 | 4.3 | 0.00 | 0.13 | 0.00 | 85 | 1007.6 |
| 20260506033110 | 53 | 198 | 0.9 | 5.2 | 0.00 | 0.13 | 0.00 | 85 | 1007.6 |
| 20260506032110 | 52 | 174 | 0.0 | 2.6 | 0.00 | 0.13 | 0.00 | 87 | 1007.6 |
| 20260506031110 | 52 | 225 | 0.9 | 2.6 | 0.00 | 0.13 | 0.00 | 88 | 1007.7 |
| 20260506025110 | 51 | 211 | 0.0 | 0.0 | 0.00 | 0.13 | 0.00 | 88 | 1007.7 |
| 20260506024110 | 51 | 211 | 0.0 | 0.0 | 0.00 | 0.13 | 0.00 | 87 | 1007.9 |
| 20260506023110 | 52 | 211 | 0.0 | 0.0 | 0.00 | 0.13 | 0.00 | 86 | 1007.9 |
| 20260506022110 | 53 | 208 | 0.0 | 0.0 | 0.00 | 0.13 | 0.00 | 86 | 1008.0 |
| 20260506021109 | 53 | 213 | 0.0 | 0.9 | 0.00 | 0.13 | 0.00 | 85 | 1008.1 |
| 20260506020109 | 53 | 139 | 0.0 | 1.7 | 0.00 | 0.13 | 0.00 | 84 | 1008.1 |
| 20260506015109 | 53 | 248 | 0.0 | 1.7 | 0.00 | 0.13 | 0.00 | 84 | 1008.2 |
| 20260506014109 | 53 | 229 | 0.0 | 0.9 | 0.00 | 0.13 | 0.00 | 85 | 1008.3 |
| 20260506013109 | 53 | 133 | 0.0 | 0.9 | 0.00 | 0.13 | 0.00 | 86 | 1008.5 |
| 20260506012109 | 53 | 226 | 0.0 | 1.7 | 0.00 | 0.13 | 0.00 | 87 | 1008.6 |
| 20260506011109 | 52 | 207 | 0.0 | 0.0 | 0.00 | 0.13 | 0.00 | 87 | 1008.6 |
| 20260506010109 | 52 | 141 | 0.0 | 0.9 | 0.00 | 0.13 | 0.00 | 87 | 1008.4 |
| 20260506005109 | 52 | 221 | 0.0 | 0.9 | 0.00 | 0.13 | 0.00 | 88 | 1008.5 |
| 20260506004109 | 52 | 133 | 0.0 | 1.7 | 0.00 | 0.13 | 0.00 | 88 | 1008.4 |
| 20260506003109 | 52 | 224 | 0.0 | 1.7 | 0.00 | 0.13 | 0.00 | 89 | 1008.5 |
| 20260506002108 | 52 | 235 | 0.0 | 0.9 | 0.00 | 0.13 | 0.00 | 88 | 1008.6 |
| 20260506001108 | 53 | 251 | 0.0 | 0.9 | 0.00 | 0.13 | 0.00 | 87 | 1008.7 |
| 20260505235113 | 53 | 225 | 0.0 | 0.9 | 0.00 | 0.13 | 0.00 | 86 | 1008.9 |
| 20260505234113 | 53 | 257 | 0.0 | 3.5 | 0.00 | 0.13 | 0.00 | 86 | 1009.0 |
| 20260505233113 | 54 | 228 | 0.0 | 3.5 | 0.00 | 0.13 | 0.00 | 85 | 1009.1 |
| 20260505232113 | 53 | 242 | 0.0 | 0.9 | 0.00 | 0.13 | 0.00 | 86 | 1009.1 |
| 20260505231113 | 53 | 245 | 0.0 | 0.0 | 0.00 | 0.13 | 0.00 | 86 | 1009.1 |
| 20260505230113 | 54 | 245 | 0.0 | 1.7 | 0.00 | 0.13 | 0.00 | 85 | 1009.1 |
| 20260505225113 | 54 | 128 | 0.0 | 0.9 | 0.00 | 0.13 | 0.00 | 85 | 1009.1 |
| 20260505224113 | 54 | 252 | 0.0 | 0.9 | 0.00 | 0.13 | 0.00 | 85 | 1009.2 |
| 20260505223112 | 54 | 142 | 0.0 | 0.9 | 0.00 | 0.13 | 0.00 | 85 | 1009.3 |
| 20260505222112 | 54 | 131 | 0.0 | 2.6 | 0.00 | 0.13 | 0.00 | 86 | 1009.3 |
| 20260505221112 | 54 | 97 | 0.0 | 0.9 | 0.00 | 0.13 | 0.00 | 86 | 1009.4 |
| 20260505220112 | 54 | 237 | 0.0 | 0.9 | 0.00 | 0.13 | 0.00 | 86 | 1009.4 |
| 20260505215112 | 54 | 239 | 0.0 | 0.9 | 0.00 | 0.13 | 0.13 | 86 | 1009.4 |
| 20260505214112 | 54 | 176 | 0.0 | 1.7 | 0.00 | 0.13 | 0.13 | 86 | 1009.3 |
| 20260505213112 | 54 | 264 | 0.0 | 0.9 | 0.00 | 0.13 | 0.13 | 86 | 1009.3 |
| 20260505212112 | 54 | 236 | 0.0 | 0.0 | 0.00 | 0.13 | 0.13 | 86 | 1009.4 |
| 20260505211112 | 55 | 167 | 0.0 | 1.7 | 0.00 | 0.13 | 0.13 | 86 | 1009.5 |
| 20260505210111 | 55 | 124 | 0.0 | 1.7 | 0.00 | 0.13 | 0.13 | 86 | 1009.4 |
| 20260505205111 | 55 | 145 | 0.0 | 2.6 | 0.00 | 0.13 | 0.13 | 86 | 1009.5 |
| 20260505204112 | 56 | 162 | 0.0 | 0.9 | 0.00 | 0.13 | 0.13 | 86 | 1009.5 |
| 20260505203111 | 56 | 233 | 0.0 | 3.5 | 0.00 | 0.13 | 0.13 | 86 | 1009.5 |